Location: Bismarck
(46.7731°N, 100.8200°W)
Time: 21:01:42
(UTC-05:00)

ISS - All Passes

Search period start: 14 September 2014 00:00
Search period end: 24 September 2014 00:00
Orbit: 414 x 417 km, 51.6° (Epoch: 14 September)

Date Brightness Start Highest point End Pass type
(mag) Time Alt. Az. Time Alt. Az. Time Alt. Az.
14 Sep - 05:28:23 10° S 05:30:39 17° SE 05:32:55 10° E visible
14 Sep - 07:03:40 10° WSW 07:07:00 87° NNW 07:10:21 10° ENE daylight
14 Sep - 08:40:53 10° WNW 08:44:00 35° N 08:47:07 10° ENE daylight
14 Sep - 10:17:59 10° WNW 10:21:12 43° NNE 10:24:24 10° E daylight
14 Sep - 11:54:45 10° WNW 11:58:00 52° SSW 12:01:15 10° SE daylight
15 Sep - 04:41:28 10° SE 04:42:12 11° SE 04:42:56 10° ESE visible
15 Sep - 06:15:03 10° SW 06:18:20 62° SSE 06:21:39 10° ENE visible
15 Sep - 07:52:01 10° W 07:55:12 40° NNW 07:58:23 10° ENE daylight
15 Sep - 09:29:15 10° WNW 09:32:24 37° N 09:35:32 10° ENE daylight
15 Sep - 11:06:00 10° WNW 11:09:21 81° SSW 11:12:40 10° ESE daylight
15 Sep - 12:43:43 10° W 12:45:37 14° SW 12:47:30 10° S daylight
16 Sep - 05:26:29 10° SW 05:29:37 39° SE 05:32:46 10° ENE visible
16 Sep - 07:03:03 10° W 07:06:18 49° NNW 07:09:34 10° ENE daylight
16 Sep - 08:40:22 10° WNW 08:43:27 34° N 08:46:33 10° ENE daylight
16 Sep - 10:17:11 10° WNW 10:20:31 70° NNE 10:23:50 10° ESE daylight
16 Sep - 11:54:17 10° W 11:56:59 23° SW 11:59:40 10° SSE daylight
17 Sep - 04:38:03 10° SSW 04:40:50 25° SE 04:43:37 10° E visible
17 Sep - 06:14:01 10° WSW 06:17:20 66° NNW 06:20:39 10° ENE visible
17 Sep - 07:51:18 10° WNW 07:54:24 34° N 07:57:29 10° ENE daylight
17 Sep - 09:28:15 10° WNW 09:31:32 51° NNE 09:34:48 10° E daylight
17 Sep - 11:05:05 10° WNW 11:08:10 36° SW 11:11:15 10° SSE daylight
18 Sep - 03:49:55 10° S 03:51:59 16° SE 03:54:04 10° E visible
18 Sep - 05:24:56 10° WSW 05:28:16 87° SSE 05:31:37 10° ENE visible
18 Sep - 07:02:06 10° WNW 07:05:13 36° N 07:08:21 10° ENE daylight
18 Sep - 08:39:12 10° WNW 08:42:23 41° NNE 08:45:35 10° E daylight
18 Sep - 10:15:55 10° WNW 10:19:12 58° SSW 10:22:28 10° SE daylight
19 Sep - 04:35:53 10° SW 04:39:09 56° SSE 04:42:26 10° ENE visible
19 Sep - 06:12:45 10° W 06:15:57 42° NNW 06:19:09 10° ENE visible
19 Sep - 07:49:59 10° WNW 07:53:06 36° N 07:56:13 10° ENE daylight
19 Sep - 09:26:42 10° WNW 09:30:03 88° SSW 09:33:23 10° ESE daylight
19 Sep - 11:04:12 10° W 11:06:20 16° SW 11:08:28 10° S daylight
20 Sep - 03:46:54 10° SSW 03:49:58 35° SE 03:53:03 10° ENE visible
20 Sep - 05:23:19 10° W 05:26:35 52° NNW 05:29:51 10° ENE visible
20 Sep - 07:00:36 10° WNW 07:03:41 34° N 07:06:46 10° ENE daylight
20 Sep - 08:37:25 10° WNW 08:40:44 64° NNE 08:44:03 10° ESE daylight
20 Sep - 10:14:24 10° W 10:17:13 25° SW 10:20:01 10° SSE daylight
21 Sep - 02:58:05 10° SSW 03:00:44 22° SE 03:03:22 10° E night (unlit)
21 Sep - 04:33:49 10° WSW 04:37:08 72° NNW 04:40:28 10° ENE visible
21 Sep - 06:11:03 10° WNW 06:14:09 34° N 06:17:14 10° ENE visible
21 Sep - 07:48:01 10° WNW 07:51:16 48° NNE 07:54:31 10° E daylight
21 Sep - 09:24:46 10° WNW 09:27:56 41° SW 09:31:04 10° SE daylight
22 Sep - 02:09:40 10° SSE 02:11:26 14° SE 02:13:11 10° ESE night (unlit)
22 Sep - 03:44:18 10° WSW 03:47:37 78° SSE 03:50:57 10° ENE visible
22 Sep - 05:21:22 10° W 05:24:30 37° N 05:27:38 10° ENE visible
22 Sep - 06:58:28 10° WNW 07:01:38 39° N 07:04:48 10° E visible
22 Sep - 08:35:09 10° WNW 08:38:28 65° SSW 08:41:46 10° SE daylight
22 Sep - 10:13:30 10° WSW 10:14:34 11° SW 10:15:38 10° SSW daylight
23 Sep - 02:54:50 10° SW 02:58:02 49° SSE 03:01:16 10° ENE night (unlit)
23 Sep - 04:31:33 10° W 04:34:45 44° NNW 04:37:58 10° ENE visible
23 Sep - 06:08:46 10° WNW 06:11:52 35° N 06:14:59 10° ENE visible
23 Sep - 07:45:29 10° WNW 07:48:49 83° NNE 07:52:09 10° ESE daylight
23 Sep - 09:22:45 10° W 09:25:08 18° SW 09:27:31 10° S daylight
